Weather in Yasyn-Sokan

Russia / Astrakhan Oblast     46°39′57″N   48°07′20″E
temp.,
°C
wind,
m/s
gust,
m/s
humid.,
%
clouds,
%
prec.,
mm/h
press.,
hPa
HPBL,
m
1 august, sun
sun101:00+23sse335392 0.0 101130
04:00+23sse3357100 0.0 101131
07:00+25s224975 0.0 101292
10:00+32se34285 0.0 10121128
13:00+36s34215 0.0 10112815
16:00+37ssw332393 0.0 10093254
19:00+34ssw133465 0.5 1010248
22:00+28sw44384 0.8 101140
2 august, mon
mon201:00+25ssw33455 0.0 101133
04:00+23sw115091 0.0 101111
07:00+28n113921 0.0 101231
10:00+35ese341821 0.0 1012891
13:00+39s35115 0.0 10113996
16:00+39s5511100 0.0 10104363
19:00+37sse71011100 0.0 1010652
22:00+30sse482099 0.0 1011123
3 august, tue
tue301:00+27s342996 0.0 101145
04:00+24ssw224169 0.0 101111
07:00+28ne113480 0.0 101213
10:00+36ese12155 0.0 1012728
13:00+41se2491 0.0 10104466
16:00+42sw23897 0.0 10095055
19:00+39sw681027 0.0 1009680
22:00+30ssw45195 0.0 101049
4 august, wed
wed401:00+27sw44240 0.0 101032
04:00+25sw33350 0.0 101023
07:00+28ssw23320 0.0 101172
10:00+37s34147 0.0 1011890
13:00+41sw5685 0.0 10103604
16:00+41wsw54834 0.0 10094239
19:00+37nw89185 0.0 1009598
22:00+29ssw23335 0.0 101115
5 august, thu
thu501:00+29w46335 0.0 101177
04:00+27nnw4842100 0.0 1010144
07:00+29n494397 0.0 1012397
10:00+30nnw10114284 0.0 1013941
13:00+24n5564100 0.7 1013152
16:00+32nw563394 0.7 10121581
19:00+32n56310 0.0 10122275
22:00+27n34363 0.0 101335